Home > Weather > Clovis > Past weeks

Flag for USA Weather for the Past 2 Weeks in Clovis, New Mexico, USA

Now
48 °F

Clear.


Feels Like: 48 °F
Forecast: 42 / 77 °F
Wind: No wind

Location: Cannon Air Force Base / Clovis

Current Time: May 4, 2016 at 1:59:13 AM

Latest Report: May 4, 2016 at 12:58 AM


Visibility: 10 mi

Pressure: 30.13 "Hg (25.73 "Hg at 1300m altitude)

Humidity: 57%

Dew Point: 33 °F

Location of ClovisLocation

Historic Weather in Clovis — Graph

°F

Clovis Temperature Yesterday

Maximum temperature yesterday: 70 °F (at 3:58 PM)
Minimum temperature yesterday: 41 °F (at 5:58 AM)
Average temperature yesterday: 56 °F

High & Low Weather Summary for the Past Weeks

 TemperatureHumidityPressure
High83 °F (Apr 23, 1:58 PM)100% (Apr 19, 12:58 AM)30.28 "Hg (Apr 19, 12:58 AM)
Low35 °F (Apr 30, 5:58 AM)7% (Apr 28, 4:58 PM)29.50 "Hg (Apr 25, 5:58 PM)
Average58 °F53%29.86 "Hg
* Reported Apr 18 11:58 PM — May 3 11:58 PM, Clovis, Weather by CustomWeather, © 2016

Note: Actual official high and low records may vary slightly from our data, if they occured in-between our weather recording intervals... More about our weather records

Advertising

Clovis Weather History for the Previous 24 Hours

Scroll right to see more
 ConditionsComfort  
Time TempWeatherWind HumidityBarometerVisibility
11:58 PM
Tue, May 3
47 °FClear.8 mph54%30.14 "Hg10 mi
10:58 PM47 °FClear.8 mph51%30.14 "Hg10 mi
9:58 PM51 °FClear.7 mph44%30.12 "Hg10 mi
8:58 PM56 °FClear.8 mph35%30.09 "Hg10 mi
7:58 PM61 °FSunny.9 mph27%30.06 "Hg10 mi
6:58 PM69 °FSunny.14 mph18%30.05 "Hg10 mi
5:58 PM69 °FSunny.15 mph20%30.04 "Hg10 mi
4:58 PM70 °FPassing clouds.14 mph25%30.03 "Hg10 mi
3:58 PM70 °FSunny.10 mph25%30.02 "Hg10 mi
2:58 PM70 °FPassing clouds.12 mph27%30.03 "Hg10 mi
1:58 PM69 °FScattered clouds.7 mph30%30.03 "Hg10 mi
12:58 PM68 °FPassing clouds.9 mph31%30.03 "Hg10 mi
11:58 AM67 °FPartly sunny.8 mph35%30.04 "Hg10 mi
10:58 AM65 °FPartly sunny.14 mph36%30.06 "Hg10 mi
9:58 AM60 °FOvercast.14 mph45%30.04 "Hg10 mi
8:58 AM57 °FPassing clouds.13 mph49%30.03 "Hg10 mi
7:58 AM51 °FSunny.8 mph63%30.05 "Hg10 mi
6:58 AM42 °FClear.3 mph81%30.12 "Hg10 mi
5:58 AM41 °FClear.No wind74%30.02 "Hg10 mi
4:58 AM43 °FClear.No wind68%30.02 "Hg10 mi
3:58 AM44 °FClear.3 mph67%30.02 "Hg10 mi
2:58 AM45 °FClear.2 mph64%30.04 "Hg10 mi
1:58 AM45 °FClear.5 mph65%30.06 "Hg10 mi
Weather by CustomWeather, © 2016

See weather overviewHow to use our weather pages